This is the latest recevied weather packets stored in our database for station/object EB1BCG-1. If no packets are shown the sender has not sent any weather packets the latest 10 day(s).
| Time | Temp. | Humidity | Pressure | Rain* | Wind** | Luminosity | Snow |
|---|---|---|---|---|---|---|---|
| 1777938414 | 7.22° C | 99% | 1012.7 hPa | 0 mm | 0 m/s | - | - |
| 1777937808 | 7.22° C | 99% | 1012.7 hPa | 0 mm | 0 m/s | - | - |
| 1777937200 | 7.22° C | 99% | 1012.7 hPa | 0 mm | 0 m/s | - | - |
| 1777936593 | 7.22° C | 99% | 1012.7 hPa | 0 mm | 0 m/s | - | - |
| 1777935988 | 7.22° C | 99% | 1012.8 hPa | 0.51 mm | 0 m/s | - | - |
| 1777935379 | 7.22° C | 99% | 1012.7 hPa | 1.02 mm | 0 m/s | - | - |
| 1777934772 | 7.22° C | 99% | 1012.8 hPa | 1.52 mm | 0 m/s | - | - |
| 1777934168 | 7.22° C | 99% | 1012.6 hPa | 1.52 mm | 0 m/s | - | - |
| 1777932409 | 6.67° C | 99% | 1013 hPa | 4.06 mm | 0 m/s | - | - |
| 1777931802 | 6.67° C | 99% | 1013.3 hPa | 4.06 mm | 0 m/s | - | - |
| 1777931261 | 6.67° C | 99% | 1013.5 hPa | 3.56 mm | 0 m/s | - | - |
| 1777930721 | 8.89° C | 99% | 1013.6 hPa | 3.05 mm | 0 m/s | - | - |
| 1777930181 | 8.89° C | 99% | 1013.7 hPa | 3.05 mm | 0 m/s | - | - |
| 1777929641 | 8.89° C | 99% | 1013.5 hPa | 0 mm | 0 m/s | - | - |
| 1777929033 | 8.89° C | 99% | 1012.6 hPa | 0 mm | 0 m/s | - | - |
| 1777928433 | 8.89° C | 99% | 1012.4 hPa | 0 mm | 0 m/s | - | - |
| 1777927819 | 8.89° C | 97% | 1012.3 hPa | 0 mm | 0 m/s | - | - |
| 1777927212 | 8.89° C | 93% | 1012.1 hPa | 0 mm | 0 m/s | - | - |
| 1777926608 | 8.89° C | 93% | 1012.2 hPa | 0 mm | 0 m/s | - | - |
| 1777925998 | 8.89° C | 92% | 1012 hPa | 0 mm | 0 m/s | - | - |
| 1777925391 | 9.44° C | 92% | 1012 hPa | 0 mm | 0 m/s | - | - |
| 1777924788 | 10° C | 91% | 1011.9 hPa | 0 mm | 0 m/s | - | - |
| 1777924178 | 10° C | 95% | 1011.7 hPa | 0 mm | 0 m/s | - | - |
| 1777923570 | 10° C | 95% | 1011.5 hPa | 0 mm | 0 m/s | - | - |
| 1777922963 | 10° C | 92% | 1011.4 hPa | 0 mm | 0 m/s | - | - |
* Rain latest hour (hover to see other rain measurements)
** Current wind speed in m/s (hover to see current wind gust speed)